Погода в Зилани

Погода в Зилани : погода сейчас, прогноз погоды и архив. Всё, что Вы хотите узнать о погоде в Зилани!

Поиск расширенной информации на нашем сайте:

Другие новости

Новости СМИ2

Главная страница сайта

Новости сайта

03.07.2017

Напоминаем, что на нашем специализированном сайте Метеоцентр.Азия вы можете получить высокодетализированные автоматические прогнозы погоды по пунктам России, СНГ и мира в авиационном формате (включающие направление и скорость ветра, видимость, явления погоды, количество и форму облачности, нижнюю и верхнюю границу облачности).


Погода в Зилани - сегодня

Время (UTC), дата Ветер
(°,м/с) 
Видим.   Явления Облачность Т
(°С)
Тd
(°С)
f(%) Тe
(°С)
Pmin
(гПа)
dP
(гПа)
Po
(мм)
O2
(г/м3)
Тmin Tmax R s Состояние
почвы
09 10.12.17 190 (Ю) 2-4  н/о    н/о 
-0.6 -3.9 78 -1  1001.4  -0.2  741  300           
12 10.12.17 200 (Ю) 3-5  н/о    н/о 
-0.6 -2.9 84 -2  1000.8  -0.6  741  299           
15 10.12.17 190 (Ю) 2-3  н/о    н/о 
-0.4 -1.4 93 -1  1000.9  0.1  741  299           
18 10.12.17 190 (Ю) 2-3  н/о    н/о 
-0.2 -2.1 87 -1  1000.7  -0.2  741  299           
21 10.12.17 150 (ЮВ) 1-2  н/о    н/о 
-2.4 -3 96 -2  1000.9  0.1  741  301           
00 11.12.17 150 (ЮВ) 2-4  н/о    н/о 
-2 -2.5 96 -3  1000.4  -0.5  740  301           
03 11.12.17 130 (ЮВ) 2-6  н/о    н/о 
-1.8 -3.3 89 -3  999.6  -0.7  740  300           
06 11.12.17 120 (ЮВ) 3-6  н/о    н/о 
-2.4 -3.9 89 -4  999.6  740  301           
09 11.12.17 130 (ЮВ) 3-7  н/о    н/о 
-1.8 -3.7 87 -4  1000.1  0.5  740  301           
12 11.12.17 130 (ЮВ) 4-7  н/о    н/о 
-1.4 -4 82 -4  999.4  -0.7  740  300           
15 11.12.17 //0 (С) //  н/о    н/о 
-1.2 -3.2 86 -1  1000.9  1.5  741  300           
18 11.12.17 140 (ЮВ) 2-5  н/о    н/о 
-0.6 -2.3 88 -1  1001.9  741  300           
21 11.12.17 130 (ЮВ) 2-5  н/о    н/о 
-0.2 -1.4 92 -1  1001.2  -0.6  741  299           
00 12.12.17 130 (ЮВ) 3-8  н/о    н/о 
+0.1 -0.5 96 -2  1000.9  -0.2  741  298           
06 12.12.17 140 (ЮВ) 4-8  н/о    н/о 
+1.4 +0.3 92 -1  997.5  -1.1  738  296           
12 12.12.17 160 (Ю) 3-6  н/о    н/о 
+2.5 +1.1 90 +1  994  -1.6  736  294           
15 12.12.17 200 (Ю) 4-7  н/о    н/о 
+5 +3.5 90 +3  994.5  0.7  736  291           
18 12.12.17 210 (ЮЗ) 5-10  н/о    н/о 
+6.5 +3.9 83 +5  995.4  0.9  737  289           
21 12.12.17 210 (ЮЗ) 6-12  н/о    н/о 
+6.5 +2 73 +4  996.1  0.6  737  290           
00 13.12.17 220 (ЮЗ) 8-15  н/о    н/о 
+4.4 -0.3 71 +1  997.8  1.6  739  293           
03 13.12.17 220 (ЮЗ) 6-10  н/о    н/о 
+2.5 +0.6 87 1000.1  2.2  740  295           
06 13.12.17 260 (З) 3-6  н/о    н/о 
+1.2 +0.5 95 1004.8  4.5  744  298           
09 13.12.17 230 (ЮЗ) 3-7  н/о    н/о 
+1 -0.5 90 -1  1008  3.1  746  300           
12 13.12.17 220 (ЮЗ) 4-6  н/о    н/о 
+1.6 -1.4 80 -1  1008.4  0.5  746  299           
15 13.12.17 220 (ЮЗ) 4-7  н/о    н/о 
+1 +0.3 95 -1  1009.5  747  300           
Время (UTC), дата Ветер
(°,м/с) 
Видим.   Явления Облачность Т
(°С)
Тd
(°С)
f(%) Тe
(°С)
Pmin
(гПа)
dP
(гПа)
Po
(мм)
O2
(г/м3)
Тmin Tmax R s Состояние
почвы

Для получения пояснительной информации подведите курсор к названию столбца.

ПОГОДА в Зилани - архив

Всё, что Вы хотите узнать о погоде в Зилани - удобно и подробно!

Выберите нужную дату (начиная с 1 января 2015* года) и нажмите кнопку "Найти".
Будут отображены архивные сводки погоды по пункту Зилани, начиная с указанной даты.


Отображать данные в формате CSV (для использования в таблицах Excel)


Внимание! Наш архив погоды предназначен исключительно для личного некоммерческого использования в познавательных целях. Если Вам необходимы официальные справки о состоянии погоды (для производственных, юридических, коммерческих и т.п. целей), обращайтесь в органы Росгидромета.

*Примечание: данная дата относится к архиву по метеостанциям СССР (Россия, СНГ, Балтия).
Архив по метеостанциям Зарубежной Европы и Азии (кроме Китая) хранится 10 дней, по другим регионам земного шара (Китай, Африка, Америка, Австралия, Океания) - 1 день.

Зилани - район местоположения метеостанции


Название, широта, долгота, высота метеостанции:
Зилани 56.5°ш. 25.9°д. 109 м над ур. моря [Латвия]

Дополнительная информация

В oтличие oт бoльшинства пoгoдных сайтoв мы публикуем пoдрoбную метеoинфoрмацию в детальнoм прoфессиoнальнoм фoрмате.

Характеристики температуры и влажнoсти вoздуха измеряются на высoте 2 м в тени вдали oт зданий и деревьев.
Скoрoсть ветра измеряется на высoте 10 м (на урoвне рoста челoвека скoрoсть ветра ниже в 1.5-2 раза). Если метеoстанция нахoдится в гoрoде или в лесу, тo скoрoсть ветра занижена на 2-4 м/с пo сравнению с oткрытым местoм. Скoрoсть ветра над акватoриями крупных рек и oзёр, а также на вершинах хoлмoв на 2-5 м/с выше, чем в oбычных услoвиях.
Атмoсфернoе давление в разных тoчках местнoсти мoжет значительнo oтличаться oт давления на метеoстанции, в зависимoсти oт услoвий рельефа (при пoдъёме на 10 м давление пoнижается примернo на 1 мм рт.ст.).